Weather History for KDFI - August, 2012

Change the Weather History Date:

Wednesday, August 15, 2012

  Actual Average Record
Temperature  
Mean Temperature 68 °F -  
Max Temperature 81 °F 83 °F 97 °F (1944)
Min Temperature 55 °F 59 °F 41 °F (1964)
Cooling Degree Days 3    
Growing Degree Days 18 (Base 50)    
Moisture  
Dew Point 60 °F    
Average Humidity 81    
Maximum Humidity 100    
Minimum Humidity 54    
Precipitation  
Precipitation 0.02 in - - ()
Sea Level Pressure  
Sea Level Pressure 29.95 in    
Wind  
Wind Speed 1 mph (SSW)    
Max Wind Speed 7 mph    
Max Gust Speed -    
Visibility 8 miles    
Events Rain    
Averages and records for this station are not official NWS values.
T = Trace of Precipitation, MM = Missing Value Source: NWS Daily Summary

Daily Weather History Graph

Daily Weather History Graph

Search for Another Location

Airport or City:

Trip Planner

Search our weather history database for the weather conditions in past years. The results will help you decide how hot, cold, wet, or windy it might be!

Date:

Astronomy

Aug. 15, 2012 Rise Set
Actual Time 6:47 AM EDT 8:36 PM EDT
Civil Twilight 6:17 AM EDT 9:05 PM EDT
Nautical Twilight 5:41 AM EDT 9:41 PM EDT
Astronomical Twilight 5:02 AM EDT 10:20 PM EDT
Moon 4:42 AM EDT (8/15) 7:09 PM EDT (8/15)
Length of Visible Light 14h 48m
Length of Day
13h 48m
Waning Crescent, 4% of the Moon is Illuminated
Aug 15
Waning Crescent
Aug 17
New
Aug 24
First Quarter
Aug 31
Full
Sep 8
Last Quarter

Hourly Weather History & Observations

Time (EDT) Temp. Heat Index Dew Point Humidity Pressure Visibility Wind Dir Wind Speed Gust Speed Precip Events Conditions
12:53 AM 60.1 °F - 57.9 °F 93% 29.94 in 9.0 mi Calm Calm - N/A   Clear
1:53 AM 59.0 °F - 57.0 °F 93% 29.94 in 10.0 mi Calm Calm - N/A   Clear
2:53 AM 59.0 °F - 57.0 °F 93% 29.93 in 8.0 mi Calm Calm - N/A   Clear
3:53 AM 59.0 °F - 57.9 °F 96% 29.94 in 10.0 mi Calm Calm - N/A   Clear
4:39 AM 57.2 °F - 55.4 °F 94% 29.94 in 2.5 mi Calm Calm - N/A   Clear
4:46 AM 57.2 °F - 55.4 °F 94% 29.94 in 6.0 mi Calm Calm - N/A   Clear
4:53 AM 57.9 °F - 55.9 °F 93% 29.93 in 5.0 mi Calm Calm - N/A   Clear
5:06 AM 55.4 °F - 55.4 °F 100% 29.94 in 1.5 mi Calm Calm - N/A   Clear
5:22 AM 57.2 °F - 55.4 °F 94% 29.94 in 4.0 mi Calm Calm - N/A   Clear
5:53 AM 57.0 °F - 55.9 °F 96% 29.94 in 5.0 mi Calm Calm - N/A   Clear
6:53 AM 59.0 °F - 57.0 °F 93% 29.95 in 4.0 mi Calm Calm - N/A   Mostly Cloudy
7:53 AM 61.0 °F - 59.0 °F 93% 29.96 in 4.0 mi Calm Calm - N/A   Mostly Cloudy
8:53 AM 63.0 °F - 61.0 °F 93% 29.98 in 5.0 mi Calm Calm - N/A   Overcast
9:53 AM 69.1 °F - 64.0 °F 84% 29.98 in 10.0 mi SSW 3.5 mph - N/A   Clear
10:53 AM 73.9 °F - 61.0 °F 64% 29.99 in 10.0 mi Variable 4.6 mph - N/A   Partly Cloudy
12:53 PM 79.0 °F - 62.1 °F 56% 29.97 in 10.0 mi Variable 6.9 mph - N/A   Partly Cloudy
1:53 PM 79.0 °F - 61.0 °F 54% 29.96 in 10.0 mi SW 4.6 mph - N/A   Mostly Cloudy
2:53 PM 77.0 °F - 63.0 °F 62% 29.96 in 10.0 mi SSW 4.6 mph - 0.00 in   Overcast
3:53 PM 75.9 °F - 64.9 °F 69% 29.96 in 10.0 mi North 6.9 mph - 0.00 in Rain Light Rain
4:53 PM 78.1 °F - 64.0 °F 62% 29.95 in 10.0 mi Calm Calm - 0.02 in   Partly Cloudy
5:53 PM 81.0 °F 82.2 °F 63.0 °F 54% 29.94 in 10.0 mi Variable 3.5 mph - N/A   Clear
6:53 PM 79.0 °F - 64.0 °F 60% 29.94 in 10.0 mi South 5.8 mph - N/A   Partly Cloudy
7:53 PM 77.0 °F - 64.0 °F 64% 29.93 in 10.0 mi Calm Calm - N/A   Clear
8:53 PM 73.0 °F - 64.9 °F 76% 29.94 in 10.0 mi South 4.6 mph - N/A   Clear
9:53 PM 71.1 °F - 64.9 °F 81% 29.96 in 10.0 mi South 4.6 mph - N/A   Clear
10:53 PM 68.0 °F - 64.9 °F 90% 29.96 in 10.0 mi Calm Calm - N/A   Clear
11:53 PM 66.0 °F - 64.0 °F 93% 29.96 in 10.0 mi South 3.5 mph - N/A   Clear